Greenwood, SC

8:39 AM EDT on October 24, 2017 (GMT -0400)
Greenwood County

Weather History for KGRD - May, 2013

Change the Weather History Date:

Saturday, May 11, 2013

  Actual Average (KAND) Record (KAND)
Temperature  
Mean Temperature 71 °F -  
Max Temperature 80 °F 79 °F 92 °F (1955)
Min Temperature 63 °F 53 °F 37 °F (1997)
Cooling Degree Days 6    
Growing Degree Days 21 (Base 50)    
Moisture  
Dew Point 62 °F    
Average Humidity 76    
Maximum Humidity 96    
Minimum Humidity 54    
Precipitation  
Precipitation 0.01 in - - ()
Sea Level Pressure  
Sea Level Pressure 29.93 in    
Wind  
Wind Speed 6 mph (SW)    
Max Wind Speed 16 mph    
Max Gust Speed 22 mph    
Visibility 10 miles    
Events Rain    
Averages and records for this station are not official NWS values.
T = Trace of Precipitation, MM = Missing Value Source: NWS Daily Summary

Daily Weather History Graph

Daily Weather History Graph

Search for Another Location

Airport or City:

Trip Planner

Search our weather history database for the weather conditions in past years. The results will help you decide how hot, cold, wet, or windy it might be!

Date:

Astronomy

May. 11, 2013 Rise Set
Actual Time 6:29 AM EDT 8:20 PM EDT
Civil Twilight 6:02 AM EDT 8:48 PM EDT
Nautical Twilight 5:28 AM EDT 9:21 PM EDT
Astronomical Twilight 4:53 AM EDT 9:57 PM EDT
Moon 7:37 AM EDT (5/11) 9:58 PM EDT (5/11)
Length of Visible Light 14h 46m
Length of Day
13h 51m
Waxing Crescent, 3% of the Moon is Illuminated
May 11
Waxing Crescent
May 18
First Quarter
May 25
Full
May 31
Last Quarter
Jun 8
New

Hourly Weather History & Observations

Time (EDT) Temp. Dew Point Humidity Pressure Visibility Wind Dir Wind Speed Gust Speed Precip Events Conditions
12:56 AM 66.9 °F 61.0 °F 81% 29.99 in 10.0 mi SW 4.6 mph - N/A   Clear
1:56 AM 64.9 °F 60.1 °F 84% 29.99 in 10.0 mi SW 4.6 mph - N/A   Clear
2:56 AM 64.9 °F 60.1 °F 84% 29.96 in 10.0 mi SSW 5.8 mph - N/A   Scattered Clouds
3:56 AM 64.9 °F 60.1 °F 84% 29.96 in 10.0 mi South 4.6 mph - N/A   Partly Cloudy
4:56 AM 63.0 °F 60.1 °F 90% 29.95 in 10.0 mi South 4.6 mph - N/A   Mostly Cloudy
5:56 AM 64.0 °F 60.1 °F 87% 29.95 in 10.0 mi SSW 3.5 mph - N/A   Overcast
6:56 AM 63.0 °F 60.1 °F 90% 29.95 in 10.0 mi Calm Calm - N/A   Scattered Clouds
7:56 AM 64.9 °F 60.1 °F 84% 29.95 in 10.0 mi SSW 3.5 mph - N/A   Clear
8:56 AM 70.0 °F 61.0 °F 73% 29.96 in 10.0 mi WSW 9.2 mph - N/A   Clear
9:56 AM 73.0 °F 62.1 °F 68% 29.95 in 10.0 mi West 6.9 mph - N/A   Clear
10:56 AM 75.9 °F 62.1 °F 62% 29.96 in 10.0 mi West 9.2 mph 16.1 mph N/A   Partly Cloudy
11:56 AM 78.1 °F 62.1 °F 58% 29.94 in 10.0 mi West 8.1 mph - N/A   Scattered Clouds
12:56 PM 79.0 °F 62.1 °F 56% 29.94 in 10.0 mi SW 15.0 mph 21.9 mph N/A   Scattered Clouds
1:56 PM 79.0 °F 61.0 °F 54% 29.91 in 10.0 mi SW 16.1 mph 21.9 mph N/A   Partly Cloudy
2:56 PM 78.1 °F 61.0 °F 56% 29.91 in 10.0 mi WSW 12.7 mph 20.7 mph N/A   Partly Cloudy
3:56 PM 73.9 °F 63.0 °F 68% 29.91 in 10.0 mi West 4.6 mph - 0.00 in   Partly Cloudy
4:56 PM 75.0 °F 64.9 °F 71% 29.90 in 10.0 mi SW 9.2 mph - N/A   Clear
5:56 PM 73.9 °F 63.0 °F 68% 29.88 in 10.0 mi WSW 6.9 mph - N/A   Clear
6:56 PM 73.9 °F 64.0 °F 71% 29.88 in 10.0 mi SW 6.9 mph - N/A   Clear
7:56 PM 72.0 °F 64.0 °F 76% 29.86 in 10.0 mi SW 8.1 mph - N/A   Clear
8:56 PM 71.1 °F 64.9 °F 81% 29.88 in 10.0 mi WSW 8.1 mph - 0.00 in Rain Light Rain
9:56 PM 66.0 °F 62.1 °F 87% 29.91 in 10.0 mi WSW 10.4 mph - 0.01 in Rain Light Rain
10:56 PM 64.0 °F 63.0 °F 96% 29.91 in 10.0 mi SW 5.8 mph - 0.00 in   Overcast
11:56 PM 64.0 °F 62.1 °F 93% 29.91 in 10.0 mi WSW 6.9 mph - N/A   Mostly Cloudy